Weather History for PACV - March, 2013

Change the Weather History Date:

Thursday, March 28, 2013

  Actual Average Record
Temperature  
Mean Temperature 28 °F -  
Max Temperature 37 °F 40 °F 52 °F (1954)
Min Temperature 19 °F 26 °F 8 °F (2007)
Degree Days  
Heating Degree Days 38    
Moisture  
Dew Point 19 °F    
Average Humidity 68    
Maximum Humidity 96    
Minimum Humidity 46    
Precipitation  
Precipitation 0.00 in - - ()
Snow  
Snow 0.00 in - - ()
Snow Depth 12.00 in    
Sea Level Pressure  
Sea Level Pressure 30.20 in    
Wind  
Wind Speed 3 mph (East)    
Max Wind Speed 10 mph    
Max Gust Speed 16 mph    
Visibility 10 miles    
Events Snow    
Averages and records for this station are not official NWS values.
T = Trace of Precipitation, MM = Missing Value Source: NWS Daily Summary

Daily Weather History Graph

Daily Weather History Graph

Search for Another Location

Airport or City:

Trip Planner

Search our weather history database for the weather conditions in past years. The results will help you decide how hot, cold, wet, or windy it might be!

Date:

Astronomy

Mar. 28, 2013 Rise Set
Actual Time 7:17 AM AKDT 8:17 PM AKDT
Civil Twilight 6:34 AM AKDT 9:00 PM AKDT
Nautical Twilight 5:41 AM AKDT 9:54 PM AKDT
Astronomical Twilight 4:40 AM AKDT 10:55 PM AKDT
Moon 11:04 PM AKDT (3/28) 7:19 AM AKDT (3/28)
Length of Visible Light 14h 26m
Length of Day
13h 00m
Full, 97% of the Moon is Illuminated
Mar 28
Full
Apr 2
Last Quarter
Apr 10
New
Apr 18
First Quarter
Apr 25
Full

Hourly Weather History & Observations

Time (AKDT) Temp. Windchill Dew Point Humidity Pressure Visibility Wind Dir Wind Speed Gust Speed Precip Events Conditions
12:53 AM 19.0 °F - 18.0 °F 96% 30.25 in 10.0 mi Calm Calm - N/A   Scattered Clouds
1:53 AM 19.9 °F - 18.0 °F 92% 30.25 in 10.0 mi Calm Calm - N/A   Overcast
2:53 AM 21.0 °F 16.2 °F 17.1 °F 85% 30.25 in 10.0 mi NNW 3.5 mph - N/A   Overcast
3:53 AM 21.9 °F - 18.0 °F 85% 30.25 in 10.0 mi Calm Calm - N/A   Overcast
4:53 AM 21.9 °F - 17.1 °F 82% 30.25 in 10.0 mi Calm Calm - N/A   Overcast
5:53 AM 21.9 °F - 18.0 °F 85% 30.24 in 10.0 mi Calm Calm - N/A   Overcast
6:53 AM 21.0 °F - 18.0 °F 88% 30.23 in 10.0 mi Calm Calm - N/A   Overcast
7:53 AM 21.0 °F - 18.0 °F 88% 30.22 in 10.0 mi Calm Calm - N/A   Mostly Cloudy
8:53 AM 21.9 °F - 19.0 °F 89% 30.22 in 10.0 mi Calm Calm - N/A   Scattered Clouds
9:53 AM 30.9 °F 27.5 °F 18.0 °F 59% 30.22 in 10.0 mi NE 3.5 mph - N/A   Scattered Clouds
10:53 AM 33.1 °F 28.7 °F 15.1 °F 48% 30.22 in 10.0 mi NE 4.6 mph - N/A   Scattered Clouds
11:53 AM 34.0 °F 31.0 °F 17.1 °F 50% 30.22 in 10.0 mi Variable 3.5 mph - N/A   Mostly Cloudy
12:53 PM 35.1 °F 27.9 °F 19.0 °F 52% 30.22 in 10.0 mi SE 9.2 mph - N/A   Overcast
1:53 PM 35.1 °F 31.0 °F 21.0 °F 57% 30.21 in 10.0 mi Variable 4.6 mph - N/A   Overcast
2:53 PM 36.0 °F 29.0 °F 17.1 °F 46% 30.19 in 10.0 mi East 9.2 mph - N/A   Overcast
3:53 PM 36.0 °F 30.3 °F 17.1 °F 46% 30.18 in 10.0 mi East 6.9 mph - N/A   Overcast
4:53 PM 35.1 °F 29.3 °F 19.0 °F 52% 30.17 in 10.0 mi NE 6.9 mph - N/A   Overcast
5:53 PM 34.0 °F 29.8 °F 21.0 °F 59% 30.16 in 10.0 mi East 4.6 mph - N/A   Overcast
6:53 PM 33.1 °F 28.7 °F 21.0 °F 61% 30.16 in 10.0 mi East 4.6 mph - N/A   Overcast
7:53 PM 33.1 °F 30.0 °F 21.0 °F 61% 30.15 in 10.0 mi SE 3.5 mph - N/A   Overcast
8:53 PM 33.1 °F 28.7 °F 21.9 °F 64% 30.16 in 8.0 mi ENE 4.6 mph - 0.00 in Snow Light Snow
9:53 PM 33.1 °F 24.9 °F 23.0 °F 66% 30.15 in 10.0 mi East 10.4 mph - 0.00 in   Overcast
10:53 PM 34.0 °F 28.0 °F 21.9 °F 61% 30.14 in 10.0 mi East 6.9 mph 16.1 mph N/A   Overcast
11:53 PM 34.0 °F 26.6 °F 21.9 °F 61% 30.13 in 10.0 mi East 9.2 mph - N/A   Overcast